STARLINK-33689, 63322

Orbit data source: Space-Track

STARLINK-33689, 63322 is a payload satellite owned by SpaceX/Seattle (US) in LEO that was launched on Tue, 18 Mar 2025 UTC via an FALCON 9 launch vehicle from the Air Force Eastern Test Range (AFETR). Payload-class satellites include a variety of spacecraft equipped with specific instruments for various scientific and technological missions. These include communications satellites like Starlink; space stations such as the ISS; scientific satellites like the Hubble; Earth observation satellites from companies like Planet Labs, Umbra, and HawkEye 360; GPS; miniature CubeSats for education and research; and military/defense satellites.

Loading next visibility...
Identifier
63322, 2025-057R
Orbit
LEO
Last TLE update
1 day ago
Origin
Manufacturer
SpaceX/Seattle
Mission
Operational spacecraft
Bus & Motor
STARLINK V2MO, Unknown motor
Mass
575 kg wet, ~530 kg dry
Launch date (UTC)
2025-03-18 (1 month ago)
Launch vehicle
FALCON 9
Launch site
Air Force Eastern Test Range (AFETR)
Object type
Payload
Rocket body
Debris
Shape & HBR
Unknown
Radar Cross Section
Large (>1 m²)

Expand to show TLE details & history

TLE from 1 day ago
0 STARLINK-33689
1 63322U 25057R   25119.16667824  .00070036  00000-0  25334-2 0  9998
2 63322  43.0001   6.7855 0000827 289.2745 264.0529 15.27542981  7673
Epoch: 2025-04-29T04:00Z
Definitive object data (Epoch: 2025-04-29T04:00:00.999Z)
Latitude
-9.14782°
Longitude
-80.70053°
Altitude
484.632 km
Speed
7.624 km/s
True Right ascension
13h 06m 41s
True Declination
-9° 05' 31"
Sunlit
Object was in full shadow at TLE epoch
Visualization TLE readout
Latitude
16.7306°
Longitude
100.89222°
Altitude
481.731 km
Speed
7.628 km/s
Apparent Right ascension
03h 17m 31s
Apparent Declination
-12° 57' 50"
Sunlit
Object is in daylight
Visualization observer readout
Local Sidereal Time
18:13:03
Azimuth
67.586° E
Elevation
-43.052°
Doppler factor
1
Orbital elements
Apogee altitude
485.673 km
Perigee altitude
484.537 km
Semi-major axis
6,863.242 km
Eccentricity
0.0000827
Inclination
43.0001°
RAAN
6.7855°
Arg. of periapsis
289.2745°
True anomaly
264.04347°
Mean anomaly
264.0529°
Eccentric anomaly
264.04819°
Mean motion
3.81724 °/min
BSTAR
0.0025334
Orbital period
94.31 mins
Loading maneuver chart data...
Loading SW <> Apogee altitude chart data...
Loading historical data...
Loading historical data...
Loading historical data...
Loading historical data...
Loading historical data...
Loading historical data...
Loading historical data...

STARLINK-33689 Visibility forecast

Observer location: undefined°, undefined°

Span
Click to sort rows by Start time (UTC) header in descending order
Start Az.
Max El. time (UTC)
Max El. Az.
Max El.
End time (UTC)
End Az.
5 mins2025-04-30 18:34:01.364Z187.924° SSW2025-04-30 18:37:01.364Z133.483° SE17.389°2025-04-30 18:39:01.364Z100.327° ESE
5 mins2025-04-30 20:13:01.364Z243.141° WSW2025-04-30 20:15:01.364Z178.76° S44.416°2025-04-30 20:18:01.364Z73.846° E
5 mins2025-04-30 21:52:01.364Z287.674° WNW2025-04-30 21:54:01.364Z346.224° N38.103°2025-04-30 21:57:01.364Z70.989° E
6 mins2025-04-30 23:31:01.364Z292.284° WNW2025-04-30 23:33:01.364Z328.972° NNW42.62°2025-04-30 23:37:01.364Z100.406° ESE
5 mins2025-05-01 01:10:01.364Z262.898° W2025-05-01 01:12:01.364Z214.57° SW27.643°2025-05-01 01:15:01.364Z150.731° SSE
|